"datetime","# probes","# resolvers","can_ipv6","can_ipv6_prbs","can_tcp","can_tcp_prbs","can_tcp6","can_tcp6_prbs","does_ecs","does_ecs_prbs","does_flagday","does_flagday_prbs","does_rov4","does_rov4_prbs","does_rov6","does_rov6_prbs","does_qnamemin","doesnt_qnamemin","does_qnamemin_prbs","doesnt_qnamemin_prbs","does_nxdomain","doesnt_nxdomain","does_nxdomain_prbs","doesnt_nxdomain_prbs","has_ta_19036","hasnt_ta_19036","has_ta_19036_prbs","hasnt_ta_19036_prbs","has_ta_20326","hasnt_ta_20326","has_ta_20326_prbs","hasnt_ta_20326_prbs","can_rsamd5","cannot_rsamd5","broken_rsamd5","can_rsamd5_prbs","cannot_rsamd5_prbs","broken_rsamd5_prbs","can_dsa","cannot_dsa","broken_dsa","can_dsa_prbs","cannot_dsa_prbs","broken_dsa_prbs","can_rsasha1","cannot_rsasha1","broken_rsasha1","can_rsasha1_prbs","cannot_rsasha1_prbs","broken_rsasha1_prbs","can_dsansec3","cannot_dsansec3","broken_dsansec3","can_dsansec3_prbs","cannot_dsansec3_prbs","broken_dsansec3_prbs","can_rsansec3","cannot_rsansec3","broken_rsansec3","can_rsansec3_prbs","cannot_rsansec3_prbs","broken_rsansec3_prbs","can_rsasha256","cannot_rsasha256","broken_rsasha256","can_rsasha256_prbs","cannot_rsasha256_prbs","broken_rsasha256_prbs","can_rsasha512","cannot_rsasha512","broken_rsasha512","can_rsasha512_prbs","cannot_rsasha512_prbs","broken_rsasha512_prbs","can_eccgost","cannot_eccgost","broken_eccgost","can_eccgost_prbs","cannot_eccgost_prbs","broken_eccgost_prbs","can_ecdsa256","cannot_ecdsa256","broken_ecdsa256","can_ecdsa256_prbs","cannot_ecdsa256_prbs","broken_ecdsa256_prbs","can_ecdsa384","cannot_ecdsa384","broken_ecdsa384","can_ecdsa384_prbs","cannot_ecdsa384_prbs","broken_ecdsa384_prbs","can_ed25519","cannot_ed25519","broken_ed25519","can_ed25519_prbs","cannot_ed25519_prbs","broken_ed25519_prbs","can_ed448","cannot_ed448","broken_ed448","can_ed448_prbs","cannot_ed448_prbs","broken_ed448_prbs","can_gost","cannot_gost","broken_gost","can_gost_prbs","cannot_gost_prbs","broken_gost_prbs","can_sha384","cannot_sha384","broken_sha384","can_sha384_prbs","cannot_sha384_prbs","broken_sha384_prbs","is_internal","is_forwarding","is_external","is_internal_prbs","is_forwarding_prbs","is_external_prbs"
2017-06-20T23:59:50Z,27,41,24,18,41,27,24,17,0,6,0,0,0,0,0,0,0,41,0,27,0,41,0,27,0,0,0,0,0,0,0,0,10,30,0,7,21,6,14,26,0,10,18,0,14,26,0,14,16,0,14,26,0,10,18,0,14,26,0,13,16,0,14,26,0,13,16,0,14,26,0,13,16,0,7,33,0,8,21,0,14,26,0,13,16,0,14,26,0,13,16,0,0,41,0,0,27,0,0,41,0,0,27,0,7,33,0,11,21,0,14,26,0,13,16,0,40,0,1,27,3,6
2017-06-21T23:59:48Z,28,42,25,19,42,28,25,19,0,5,0,0,0,0,0,0,0,42,0,28,0,42,0,28,0,0,0,0,0,0,0,0,10,31,0,7,22,7,14,27,0,10,19,2,14,27,0,13,17,2,14,27,0,10,19,2,14,27,0,13,17,2,14,27,0,13,17,2,14,27,0,13,17,2,7,34,0,8,22,2,14,27,0,13,17,2,14,27,0,13,17,2,0,42,0,0,28,2,0,42,0,0,28,2,7,34,0,11,22,2,14,27,0,13,17,2,41,0,1,28,3,6
2017-06-22T23:59:48Z,28,42,25,19,42,28,25,18,0,5,0,0,0,0,0,0,0,42,0,28,0,42,0,28,0,0,0,0,0,0,0,0,11,30,0,8,21,7,14,27,0,10,19,2,15,26,0,14,16,2,14,27,0,10,19,2,15,26,0,14,16,2,15,26,0,14,16,2,15,26,0,14,16,2,7,34,0,8,22,2,15,26,0,14,16,2,15,26,0,14,16,2,0,42,0,0,28,2,0,42,0,0,28,2,8,33,0,12,21,2,15,26,0,14,16,2,41,0,1,28,3,6
2017-06-23T23:59:50Z,27,43,26,18,43,27,26,18,0,5,0,0,0,0,0,0,0,43,0,27,0,43,0,27,0,0,0,0,0,0,0,0,10,32,0,7,21,5,14,28,0,10,18,0,14,28,0,13,16,0,14,28,0,10,18,0,14,28,0,13,16,0,14,28,0,13,16,0,14,28,0,13,16,0,7,35,0,8,21,0,14,28,0,13,16,0,14,28,0,13,16,0,0,43,0,0,27,0,0,43,0,0,27,0,7,35,0,11,21,0,14,28,0,14,16,0,42,0,1,27,3,6
2017-06-24T23:59:51Z,26,42,26,18,42,26,25,18,0,5,0,0,0,0,0,0,0,42,0,26,0,41,0,25,0,0,0,0,0,0,0,0,10,31,0,7,20,5,13,28,0,9,18,0,13,28,0,12,16,0,13,28,0,9,18,0,13,28,0,12,16,0,13,28,0,12,16,0,13,28,0,12,16,0,7,34,0,8,20,0,13,28,0,12,16,0,13,28,0,12,16,0,0,42,0,0,26,0,0,42,0,0,26,0,7,34,0,11,20,0,13,28,0,12,16,0,41,0,1,26,3,6
2017-06-25T23:59:50Z,26,42,26,18,42,26,26,18,0,5,0,0,0,0,0,0,0,42,0,26,0,42,0,26,0,0,0,0,0,0,0,0,10,31,0,7,20,5,13,28,0,9,18,0,13,28,0,12,16,0,13,28,0,9,18,0,13,28,0,12,16,0,13,28,0,12,16,0,13,28,0,12,16,0,7,34,0,8,20,0,13,28,0,12,16,0,13,28,0,12,16,0,0,42,0,0,26,0,0,42,0,0,26,0,7,34,0,11,20,0,13,28,0,12,16,0,41,0,1,26,3,6
2017-06-26T23:59:51Z,28,44,27,19,44,28,27,19,1,6,0,0,0,0,0,0,0,44,0,28,0,44,0,28,0,0,0,0,0,0,0,0,11,32,0,8,21,5,14,29,0,10,19,0,16,27,0,15,15,0,15,28,0,11,18,0,15,28,0,14,16,0,16,27,0,15,15,0,15,28,0,14,16,0,8,35,0,9,21,0,15,28,0,14,16,0,16,27,0,15,15,0,0,44,0,0,28,0,0,44,0,0,28,0,8,35,0,12,21,0,15,28,0,14,16,0,43,0,1,28,3,6
2017-06-27T23:59:50Z,26,42,26,18,42,26,26,18,0,5,0,0,0,0,0,0,0,42,0,26,0,42,0,26,0,0,0,0,0,0,0,0,10,32,0,7,21,5,14,28,0,10,18,0,15,27,0,14,15,0,15,27,0,11,17,0,14,28,0,13,16,0,15,27,0,14,15,0,14,28,0,13,16,0,8,34,0,9,20,0,15,27,0,14,15,0,15,27,0,14,15,0,0,42,0,0,26,0,0,42,0,0,26,0,8,34,0,12,20,0,15,27,0,15,15,0,41,0,1,26,3,6
2017-06-28T23:59:50Z,27,43,26,18,43,27,26,17,0,5,0,0,0,0,0,0,0,43,0,27,0,43,0,27,0,0,0,0,0,0,0,0,11,31,0,8,20,5,15,27,0,11,17,0,15,27,0,14,15,0,15,27,0,11,17,0,14,28,0,13,16,0,15,27,0,14,15,0,15,27,0,14,15,0,8,35,0,9,21,0,15,27,0,14,15,0,15,27,0,14,15,0,0,43,0,0,27,0,0,43,0,0,27,0,8,35,0,12,21,0,15,27,0,14,15,0,42,0,1,27,3,6
2017-06-29T23:59:49Z,26,42,26,18,42,26,26,18,1,6,0,0,0,0,0,0,0,42,0,26,0,42,0,26,0,0,0,0,0,0,0,0,11,30,0,8,19,6,15,26,0,11,16,0,15,26,0,14,14,0,15,26,0,11,16,0,15,26,0,14,14,0,15,26,0,14,14,0,15,26,0,14,14,0,8,34,0,9,20,0,15,26,0,14,14,0,15,26,0,14,14,0,0,42,0,0,26,0,0,42,0,0,26,0,8,34,0,12,20,0,15,26,0,14,14,0,41,0,1,26,3,6
2017-06-30T23:59:49Z,26,41,25,18,41,26,25,17,1,6,0,0,0,0,0,0,0,41,0,26,0,41,0,26,0,0,0,0,0,0,0,0,12,28,0,9,18,5,15,25,0,11,16,0,16,24,0,15,13,0,15,25,0,11,16,0,16,24,0,15,13,0,16,24,0,15,13,0,16,24,0,15,13,0,8,33,0,9,20,0,16,24,0,15,13,0,16,24,0,15,13,0,0,41,0,0,26,0,0,41,0,0,26,0,9,32,0,13,19,0,16,24,0,15,13,0,40,0,1,26,3,6
2017-07-01T23:59:48Z,25,40,24,17,39,25,24,17,0,5,0,0,0,0,0,0,0,40,0,25,0,40,0,25,0,0,0,0,0,0,0,0,11,28,0,8,18,5,15,24,0,11,15,0,15,24,0,14,13,0,15,24,0,11,15,0,15,24,0,14,13,0,15,24,0,14,13,0,15,24,0,14,13,0,8,32,0,9,19,0,15,24,0,14,13,0,15,24,0,14,13,0,0,40,0,0,25,0,0,40,0,0,25,0,8,32,0,12,19,0,15,24,0,14,13,0,39,0,1,25,3,6
2017-07-02T23:59:48Z,25,40,24,17,39,25,24,16,1,5,0,0,0,0,0,0,0,40,0,25,0,40,0,25,0,0,0,0,0,0,0,0,11,28,0,8,18,5,15,24,0,11,15,0,15,24,0,14,13,0,15,24,0,11,15,0,15,24,0,14,13,0,15,24,0,14,13,0,15,24,0,14,13,0,8,32,0,9,19,0,15,24,0,14,13,0,15,24,0,14,13,0,0,40,0,0,25,0,0,40,0,0,25,0,8,32,0,12,19,0,15,24,0,15,13,0,39,0,1,25,3,6
2017-07-03T23:59:51Z,27,43,26,18,43,27,26,18,0,5,0,0,0,0,0,0,0,43,0,27,0,43,0,27,0,0,0,0,0,0,0,0,11,31,0,8,20,5,15,27,0,11,17,0,15,27,0,14,15,0,15,27,0,11,17,0,15,27,0,14,15,0,15,27,0,14,15,0,15,27,0,14,15,0,8,35,0,9,21,0,15,27,0,14,15,0,15,27,0,14,15,0,0,43,0,0,27,0,0,43,0,0,27,0,8,35,0,12,21,0,15,27,0,14,15,0,42,0,1,27,3,6
2017-07-04T23:59:18Z,28,43,26,19,43,28,26,18,2,6,0,0,0,0,0,0,0,43,0,28,0,43,0,28,0,0,0,0,0,0,0,0,12,30,0,9,20,5,15,27,0,11,18,0,16,26,0,15,15,0,15,27,0,11,18,0,16,26,0,15,15,0,16,26,0,15,15,0,16,26,0,15,15,0,8,35,0,9,22,0,16,26,0,15,15,0,16,26,0,15,15,0,0,43,0,0,28,0,0,43,0,0,28,0,9,34,0,13,21,0,16,26,0,15,15,0,41,1,1,27,4,6
2017-07-05T23:59:16Z,24,39,23,16,39,24,23,15,0,5,0,0,0,0,0,0,0,39,0,24,0,39,0,24,0,0,0,0,0,0,0,0,10,28,0,7,18,5,14,24,0,10,15,0,14,24,0,13,13,0,14,24,0,10,15,0,14,24,0,13,13,0,14,24,0,13,13,0,14,24,0,13,13,0,7,32,0,8,19,0,14,24,0,14,13,0,14,24,0,14,13,0,0,39,0,0,24,0,0,39,0,0,24,0,7,32,0,11,19,0,14,24,0,13,13,0,38,0,1,24,3,6
2017-07-06T23:59:15Z,23,37,21,15,37,23,21,13,0,5,0,0,0,0,0,0,0,37,0,23,0,36,0,22,0,0,0,0,0,0,0,0,10,26,0,7,17,5,14,22,0,10,14,0,14,22,0,13,12,0,14,22,0,10,14,0,14,22,0,13,12,0,14,22,0,13,12,0,14,22,0,13,12,0,7,30,0,8,18,0,14,22,0,13,12,0,14,22,0,13,12,0,0,37,0,0,23,0,0,37,0,0,23,0,7,30,0,11,18,0,14,22,0,13,12,0,36,0,1,23,3,6
2017-07-07T23:59:17Z,23,37,21,15,37,23,21,15,0,5,0,0,0,0,0,0,0,37,0,23,0,37,0,23,0,0,0,0,0,0,0,0,10,26,0,7,17,5,14,22,0,10,14,0,14,22,0,13,12,0,14,22,0,10,14,0,14,22,0,13,12,0,14,22,0,13,12,0,14,22,0,13,12,0,7,30,0,8,18,0,14,22,0,14,12,0,14,22,0,14,12,0,0,37,0,0,23,0,0,37,0,0,23,0,7,30,0,11,18,0,14,22,0,13,12,0,36,0,1,23,3,6
2017-07-08T23:59:14Z,23,37,21,15,37,23,21,15,0,6,0,0,0,0,0,0,0,37,0,23,0,37,0,23,0,0,0,0,0,0,0,0,10,26,0,7,17,6,14,22,0,10,14,0,14,22,0,14,12,0,14,22,0,10,14,0,14,22,0,13,12,0,14,22,0,13,12,0,14,22,0,13,12,0,7,30,0,8,18,0,14,22,0,13,12,0,14,22,0,13,12,0,0,37,0,0,23,0,0,37,0,0,23,0,7,30,0,11,18,0,14,22,0,13,12,0,36,0,1,23,3,6
2017-07-09T23:59:16Z,23,36,20,15,36,23,20,14,0,5,0,0,0,0,0,0,0,36,0,23,0,36,0,23,0,0,0,0,0,0,0,0,10,25,0,7,17,5,14,21,0,10,14,0,14,21,0,13,12,0,14,21,0,10,14,0,14,21,0,14,12,0,14,21,0,14,12,0,14,21,0,14,12,0,7,29,0,8,18,0,14,21,0,13,12,0,14,21,0,13,12,0,0,36,0,0,23,0,0,36,0,0,23,0,7,29,0,11,18,0,14,21,0,13,12,0,35,0,1,23,4,6
2017-07-10T23:59:55Z,27,44,26,18,44,27,26,18,0,5,0,0,0,0,0,0,0,44,0,27,0,44,0,27,0,0,0,0,0,0,0,0,10,33,0,7,21,5,14,29,0,10,18,0,14,29,0,13,16,0,14,29,0,10,18,0,14,29,0,13,16,0,14,29,0,13,16,0,14,29,0,13,16,0,7,37,0,8,22,0,14,29,0,13,16,0,14,29,0,13,16,0,0,44,0,0,27,0,0,44,0,0,27,0,7,37,0,11,22,0,14,29,0,13,16,0,42,1,1,27,4,6
2017-07-11T23:59:54Z,26,43,25,17,43,26,24,16,0,5,0,0,0,0,0,0,0,43,0,26,0,43,0,26,0,0,0,0,0,0,0,0,10,32,0,7,20,5,14,28,0,10,17,0,14,28,0,13,15,0,14,28,0,10,17,0,14,28,0,13,15,0,14,28,0,13,15,0,14,28,0,13,15,0,7,36,0,8,21,0,14,28,0,13,15,0,14,28,0,13,15,0,0,43,0,0,26,0,0,43,0,0,26,0,7,36,0,11,21,0,14,28,0,13,15,0,42,0,1,26,3,6
2017-07-12T23:59:55Z,27,44,24,17,44,27,24,16,0,6,0,0,0,0,0,0,0,44,0,27,0,44,0,27,0,0,0,0,0,0,0,0,11,32,0,8,21,6,15,28,0,11,18,0,15,28,0,14,16,0,15,28,0,11,18,0,15,28,0,14,16,0,15,28,0,14,16,0,15,28,0,14,16,0,7,37,0,8,22,0,14,29,0,13,16,0,14,29,0,13,16,0,0,44,0,0,27,0,0,44,0,0,27,0,7,37,0,11,22,0,14,29,0,13,16,0,43,0,1,27,4,6
2017-07-13T23:59:55Z,27,45,25,17,45,27,25,17,0,5,0,0,0,0,0,0,0,45,0,27,0,45,0,27,0,0,0,0,0,0,0,0,11,33,0,8,21,5,15,29,0,11,18,0,15,29,0,14,16,0,15,29,0,11,18,0,15,29,0,15,16,0,15,29,0,15,16,0,15,29,0,15,16,0,7,38,0,8,22,0,14,30,0,13,16,0,14,30,0,13,16,0,0,45,0,0,27,0,0,45,0,0,27,0,7,38,0,11,22,0,14,30,0,14,16,0,44,0,1,27,3,6
2017-07-14T23:59:55Z,28,46,26,18,46,28,26,17,1,6,0,0,0,0,0,0,0,46,0,28,0,46,0,28,0,0,0,0,0,0,0,0,12,33,0,9,21,5,15,30,0,11,19,0,16,29,0,15,16,0,15,30,0,11,19,0,16,29,0,15,16,0,16,29,0,15,16,0,16,29,0,15,16,0,7,39,0,8,23,0,15,30,0,14,16,0,15,30,0,14,16,0,0,46,0,0,28,0,0,46,0,0,28,0,8,38,0,12,22,0,15,30,0,14,16,0,44,1,1,27,4,6
2017-07-15T23:59:54Z,27,45,25,17,45,27,25,16,0,6,0,0,0,0,0,0,0,45,0,27,0,45,0,27,0,0,0,0,0,0,0,0,11,33,0,8,21,6,15,29,0,11,18,0,15,29,0,15,16,0,15,29,0,11,18,0,15,29,0,15,16,0,15,29,0,15,16,0,15,29,0,15,16,0,7,38,0,8,22,0,14,30,0,13,16,0,14,30,0,13,16,0,0,45,0,0,27,0,0,45,0,0,27,0,7,38,0,11,22,0,14,30,0,14,16,0,44,0,1,27,3,6
2017-07-16T23:59:54Z,27,45,25,17,45,27,25,16,0,5,0,0,0,0,0,0,0,45,0,27,0,44,0,26,0,0,0,0,0,0,0,0,11,33,0,8,21,5,15,29,0,11,18,0,15,29,0,14,16,0,15,29,0,11,18,0,15,29,0,14,16,0,15,29,0,14,16,0,15,29,0,14,16,0,7,38,0,8,22,0,14,30,0,13,16,0,14,30,0,13,16,0,0,45,0,0,27,0,0,45,0,0,27,0,7,38,0,11,22,0,14,30,0,13,16,0,44,0,1,27,3,6
2017-07-17T23:59:54Z,27,45,25,17,45,27,25,16,0,5,0,0,0,0,0,0,0,45,0,27,0,45,0,27,0,0,0,0,0,0,0,0,11,33,0,8,21,5,15,29,0,11,18,0,15,29,0,14,16,0,15,29,0,11,18,0,15,29,0,14,16,0,15,29,0,14,16,0,15,29,0,14,16,0,7,38,0,8,22,0,14,30,0,13,16,0,14,30,0,13,16,0,0,45,0,0,27,0,0,45,0,0,27,0,7,38,0,11,22,0,14,30,0,13,16,0,44,0,1,27,3,6
2017-07-18T23:59:54Z,27,45,25,17,45,27,25,16,0,5,0,0,0,0,0,0,0,45,0,27,0,45,0,27,0,0,0,0,0,0,0,0,11,33,0,8,21,5,15,29,0,11,18,0,15,29,0,14,16,0,15,29,0,11,18,0,15,29,0,14,16,0,15,29,0,14,16,0,15,29,0,14,16,0,7,38,0,8,22,0,14,30,0,13,16,0,14,30,0,13,16,0,0,45,0,0,27,0,0,45,0,0,27,0,7,38,0,11,22,0,14,30,0,14,16,0,44,0,1,27,3,6
2017-07-19T23:59:56Z,30,48,27,19,48,30,27,18,1,6,0,0,0,0,0,0,0,48,0,30,0,48,0,30,0,0,0,0,0,0,0,0,13,34,0,10,22,5,16,31,0,12,20,0,17,30,0,16,17,0,16,31,0,12,20,0,17,30,0,16,17,0,17,30,0,16,17,0,17,30,0,16,17,0,8,40,0,9,24,0,16,31,0,15,17,0,16,31,0,15,17,0,0,48,0,0,30,0,0,48,0,0,30,0,9,39,0,13,23,0,16,31,0,15,17,0,46,1,1,29,4,6
2017-07-20T23:59:54Z,28,46,25,17,46,28,25,16,0,5,0,0,0,0,0,0,0,46,0,28,0,46,0,28,0,0,0,0,0,0,0,0,12,33,0,9,21,5,16,29,0,12,18,0,16,29,0,15,16,0,16,29,0,12,18,0,16,29,0,16,16,0,16,29,0,16,16,0,16,29,0,16,16,0,8,38,0,9,22,0,15,30,0,14,16,0,15,30,0,14,16,0,0,46,0,0,28,0,0,46,0,0,28,0,8,38,0,12,22,0,15,30,0,14,16,0,45,0,1,28,3,6
2017-07-21T23:59:54Z,28,46,25,17,46,28,25,16,0,5,0,0,0,0,0,0,0,46,0,28,0,46,0,28,0,0,0,0,0,0,0,0,12,33,0,9,21,5,16,29,0,12,18,0,16,29,0,15,16,0,16,29,0,12,18,0,16,29,0,16,16,0,16,29,0,16,16,0,16,29,0,16,16,0,8,38,0,9,22,0,15,30,0,14,16,0,15,30,0,14,16,0,0,46,0,0,28,0,0,46,0,0,28,0,8,38,0,12,22,0,15,30,0,14,16,0,45,0,1,28,3,6
2017-07-22T23:59:57Z,28,46,25,17,46,28,25,16,0,6,0,0,0,0,0,0,0,46,0,28,0,46,0,28,0,0,0,0,0,0,0,0,12,33,0,9,21,6,16,29,0,12,18,0,16,29,0,16,16,0,16,29,0,12,18,0,16,29,0,16,16,0,16,29,0,16,16,0,16,29,0,16,16,0,8,38,0,9,22,0,15,30,0,14,16,0,15,30,0,14,16,0,0,46,0,0,28,0,0,46,0,0,28,0,8,38,0,12,22,0,15,30,0,14,16,0,45,0,1,28,3,6
2017-07-23T23:59:54Z,30,48,27,19,48,30,27,18,1,6,0,0,0,0,0,0,0,48,0,30,0,48,0,30,0,0,0,0,0,0,0,0,13,34,0,10,22,5,16,31,0,12,20,0,17,30,0,16,17,0,16,31,0,12,20,0,17,30,0,17,17,0,17,30,0,17,17,0,17,30,0,17,17,0,8,40,0,9,24,0,16,31,0,15,17,0,16,31,0,15,17,0,0,48,0,0,30,0,0,48,0,0,30,0,9,39,0,13,23,0,16,31,0,15,17,0,46,1,1,30,4,6
2017-07-24T23:59:57Z,28,47,26,17,46,28,26,16,0,6,0,0,0,0,0,0,0,47,0,28,0,47,0,28,0,0,0,0,0,0,0,0,12,34,0,9,21,6,16,30,0,12,18,0,16,30,0,15,16,0,16,30,0,12,18,0,16,30,0,16,16,0,16,30,0,16,16,0,16,30,0,16,16,0,8,39,0,9,22,0,15,31,0,14,16,0,15,31,0,14,16,0,0,47,0,0,28,0,0,47,0,0,28,0,8,39,0,12,22,0,15,31,0,14,16,0,46,0,1,28,3,6
2017-07-25T23:59:56Z,28,45,24,17,45,28,24,16,0,5,0,0,0,0,0,0,0,45,0,28,0,45,0,28,0,0,0,0,0,0,0,0,12,32,0,9,21,5,16,28,0,12,18,0,16,28,0,15,16,0,16,28,0,12,18,0,16,28,0,16,16,0,16,28,0,16,16,0,16,28,0,16,16,0,8,37,0,9,22,0,15,29,0,14,16,0,15,29,0,14,16,0,0,45,0,0,28,0,0,45,0,0,28,0,8,37,0,12,22,0,15,29,0,14,16,0,44,0,1,28,3,6
2017-07-26T23:59:56Z,27,44,23,16,44,27,23,16,0,5,0,0,0,0,0,0,0,44,0,27,0,44,0,27,0,0,0,0,0,0,0,0,11,32,0,8,21,5,15,28,0,11,18,0,15,28,0,14,16,0,15,28,0,11,18,0,15,28,0,15,16,0,15,28,0,15,16,0,15,28,0,15,16,0,7,37,0,8,22,0,14,29,0,13,16,0,14,29,0,13,16,0,0,44,0,0,27,0,0,44,0,0,27,0,7,37,0,11,22,0,14,29,0,13,16,0,43,0,1,27,3,6
2017-07-27T23:59:56Z,28,44,23,17,44,28,23,17,0,5,0,0,0,0,0,0,0,44,0,28,0,44,0,28,0,0,0,0,0,0,0,0,12,31,0,9,21,5,16,27,0,12,18,0,16,27,0,15,16,0,16,27,0,12,18,0,16,27,0,16,16,0,16,27,0,16,16,0,16,27,0,16,16,0,8,36,0,9,22,0,15,28,0,14,16,0,15,28,0,14,16,0,0,44,0,0,28,0,0,44,0,0,28,0,8,36,0,12,22,0,15,28,0,14,16,0,43,0,1,28,3,6
2017-07-28T23:59:55Z,28,45,24,17,45,28,24,16,0,5,0,0,0,0,0,0,0,45,0,28,0,44,0,27,0,0,0,0,0,0,0,0,12,32,0,9,21,5,16,28,0,12,18,0,16,28,0,15,16,0,16,28,0,12,18,0,16,28,0,15,16,0,16,28,0,15,16,0,16,28,0,15,16,0,8,37,0,9,22,0,15,29,0,14,16,0,15,29,0,14,16,0,0,45,0,0,28,0,0,45,0,0,28,0,8,37,0,12,22,0,15,29,0,14,16,0,44,0,1,28,3,6
2017-07-29T23:59:55Z,28,45,24,17,44,28,24,17,0,5,0,0,0,0,0,0,0,45,0,28,0,45,0,28,0,0,0,0,0,0,0,0,12,32,0,9,21,5,16,28,0,12,18,0,16,28,0,15,16,0,16,28,0,12,18,0,16,28,0,16,16,0,16,28,0,16,16,0,16,28,0,16,16,0,8,37,0,9,22,0,15,29,0,14,16,0,15,29,0,14,16,0,0,45,0,0,28,0,0,45,0,0,28,0,8,37,0,12,22,0,15,29,0,14,16,0,44,0,1,28,3,6
2017-07-30T23:59:55Z,28,45,24,17,45,28,24,16,0,5,0,0,0,0,0,0,0,45,0,28,0,45,0,28,0,0,0,0,0,0,0,0,12,32,0,9,21,5,16,28,0,12,18,0,16,28,0,15,16,0,16,28,0,12,18,0,16,28,0,15,16,0,16,28,0,15,16,0,16,28,0,15,16,0,8,37,0,9,22,0,15,29,0,14,16,0,15,29,0,14,16,0,0,45,0,0,28,0,0,45,0,0,28,0,8,37,0,12,22,0,15,29,0,14,16,0,44,0,1,28,3,6
2017-07-31T23:59:54Z,28,45,24,17,45,28,24,17,0,5,0,0,0,0,0,0,0,45,0,28,0,45,0,28,0,0,0,0,0,0,0,0,12,32,0,9,21,5,16,28,0,12,18,0,16,28,0,15,16,0,16,28,0,12,18,0,16,28,0,15,16,0,16,28,0,15,16,0,16,28,0,15,16,0,8,37,0,9,22,0,15,29,0,14,16,0,15,29,0,14,16,0,0,45,0,0,28,0,0,45,0,0,28,0,8,37,0,12,22,0,15,29,0,14,16,0,44,0,1,28,3,6
2017-08-01T23:59:57Z,28,46,25,17,46,28,25,17,0,5,0,0,0,0,0,0,0,46,0,28,0,46,0,28,0,0,0,0,0,0,0,0,12,33,0,9,21,5,16,29,0,12,18,0,16,29,0,15,16,0,16,29,0,12,18,0,16,29,0,15,16,0,16,29,0,15,16,0,16,29,0,15,16,0,8,38,0,9,22,0,15,30,0,14,16,0,15,30,0,14,16,0,0,46,0,0,28,0,0,46,0,0,28,0,8,38,0,12,22,0,15,30,0,14,16,0,45,0,1,28,3,6
2017-08-02T23:59:56Z,27,43,22,16,43,27,22,15,0,5,0,0,0,0,0,0,0,43,0,27,0,43,0,27,0,0,0,0,0,0,0,0,12,30,0,9,20,5,14,28,0,11,18,0,14,28,0,14,16,0,14,28,0,11,18,0,14,28,0,14,16,0,14,28,0,14,16,0,14,28,0,14,16,0,6,37,0,8,22,0,13,29,0,13,16,0,13,29,0,13,16,0,0,43,0,0,27,0,0,43,0,0,27,0,6,37,0,11,22,0,13,29,0,13,16,0,42,0,1,27,3,6
2017-08-03T23:59:56Z,28,44,23,17,43,28,23,16,1,6,0,0,0,0,0,0,0,44,0,28,0,44,0,28,0,0,0,0,0,0,0,0,13,30,0,10,20,5,16,27,0,12,18,0,17,26,0,16,15,0,16,27,0,12,18,0,17,26,0,17,15,0,17,26,0,17,15,0,17,26,0,17,15,0,8,36,0,9,22,0,16,27,0,15,15,0,16,27,0,15,15,0,0,44,0,0,28,0,0,44,0,0,28,0,9,35,0,13,21,0,16,27,0,16,15,0,43,0,1,28,3,6
2017-08-04T23:59:54Z,28,44,23,17,43,28,23,16,1,6,0,0,0,0,0,0,0,44,0,28,0,44,0,28,0,0,0,0,0,0,0,0,13,30,0,10,20,5,16,27,0,12,18,0,17,26,0,16,15,0,16,27,0,12,18,0,17,26,0,17,15,0,17,26,0,17,15,0,17,26,0,17,15,0,8,36,0,9,22,0,16,27,0,15,15,0,16,27,0,15,15,0,0,44,0,0,28,0,0,44,0,0,28,0,9,35,0,13,21,0,16,27,0,16,15,0,42,1,1,27,4,6
2017-08-05T23:59:56Z,26,42,21,15,42,26,21,14,0,5,0,0,0,0,0,0,0,42,0,26,0,42,0,26,0,0,0,0,0,0,0,0,11,30,0,8,20,5,15,26,0,11,17,0,15,26,0,14,15,0,15,26,0,11,17,0,15,26,0,15,15,0,15,26,0,15,15,0,15,26,0,15,15,0,7,35,0,8,21,0,14,27,0,13,15,0,14,27,0,13,15,0,0,42,0,0,26,0,0,42,0,0,26,0,7,35,0,11,21,0,14,27,0,13,15,0,41,0,1,26,3,6
2017-08-06T23:59:54Z,26,42,22,16,42,26,22,15,0,5,0,0,0,0,0,0,0,42,0,26,0,42,0,26,0,0,0,0,0,0,0,0,12,29,0,9,19,5,15,26,0,11,17,0,15,26,0,14,15,0,15,26,0,11,17,0,15,26,0,15,15,0,15,26,0,15,15,0,15,26,0,15,15,0,8,34,0,9,20,0,14,27,0,13,15,0,14,27,0,13,15,0,0,42,0,0,26,0,0,42,0,0,26,0,8,34,0,12,20,0,14,27,0,13,15,0,41,0,1,26,3,6
2017-08-07T23:59:55Z,28,44,23,17,44,28,23,17,0,5,0,0,0,0,0,0,0,44,0,28,0,44,0,28,0,0,0,0,0,0,0,0,12,31,0,9,21,5,16,27,0,12,18,0,16,27,0,15,16,0,16,27,0,12,18,0,16,27,0,16,16,0,16,27,0,16,16,0,16,27,0,16,16,0,8,36,0,9,22,0,15,28,0,14,16,0,15,28,0,14,16,0,0,44,0,0,28,0,0,44,0,0,28,0,8,36,0,12,22,0,15,28,0,14,16,0,42,1,1,28,4,6
2017-08-08T23:59:55Z,28,44,23,17,44,28,23,17,1,6,0,0,0,0,0,0,0,44,0,28,0,44,0,28,0,0,0,0,0,0,0,0,13,30,0,10,20,5,16,27,0,12,18,0,17,26,0,16,15,0,16,27,0,12,18,0,17,26,0,17,15,0,17,26,0,17,15,0,17,26,0,17,15,0,8,36,0,9,22,0,16,27,0,15,15,0,16,27,0,15,15,0,0,44,0,0,28,0,0,44,0,0,28,0,9,35,0,13,21,0,16,27,0,15,15,0,42,1,1,27,4,6
2017-08-09T23:59:56Z,27,43,22,16,42,27,22,15,0,5,0,0,0,0,0,0,0,43,0,27,0,43,0,27,0,0,0,0,0,0,0,0,12,30,0,9,20,5,16,26,0,12,17,0,16,26,0,15,15,0,16,26,0,12,17,0,16,26,0,16,15,0,16,26,0,16,15,0,16,26,0,16,15,0,8,35,0,9,21,0,15,27,0,14,15,0,15,27,0,14,15,0,0,43,0,0,27,0,0,43,0,0,27,0,8,35,0,12,21,0,15,27,0,14,15,0,42,0,1,27,3,6
2017-08-10T23:59:57Z,27,41,23,17,41,27,22,15,0,5,0,0,0,0,0,0,0,41,0,27,0,41,0,27,0,0,0,0,0,0,0,0,13,27,0,10,19,5,17,23,0,13,16,0,17,23,0,16,14,0,17,23,0,13,16,0,17,23,0,17,14,0,17,23,0,17,14,0,17,23,0,17,14,0,9,32,0,10,20,0,16,24,0,15,14,0,16,24,0,15,14,0,0,41,0,0,27,0,0,41,0,0,27,0,9,32,0,13,20,0,16,24,0,15,14,0,39,1,1,26,4,6
2017-08-11T23:59:56Z,28,42,24,18,42,28,23,16,0,5,0,0,0,0,0,0,0,42,0,28,0,42,0,28,0,0,0,0,0,0,0,0,13,28,0,10,20,5,17,24,0,13,17,0,17,24,0,16,15,0,17,24,0,13,17,0,17,24,0,17,15,0,17,24,0,17,15,0,17,24,0,17,15,0,9,33,0,10,21,0,16,25,0,15,15,0,16,25,0,15,15,0,0,42,0,0,28,0,0,42,0,0,28,0,9,33,0,13,21,0,16,25,0,15,15,0,40,1,1,27,4,6
2017-08-12T23:59:57Z,28,42,24,18,42,28,23,17,1,6,0,0,0,0,0,0,0,42,0,28,0,42,0,28,0,0,0,0,0,0,0,0,14,27,0,11,19,5,17,24,0,13,17,0,18,23,0,17,14,0,17,24,0,13,17,0,18,23,0,18,14,0,18,23,0,18,14,0,18,23,0,18,14,0,9,33,0,10,21,0,17,24,0,16,14,0,17,24,0,16,14,0,0,42,0,0,28,0,0,42,0,0,28,0,10,32,0,14,20,0,17,24,0,16,14,0,39,2,1,26,5,6
2017-08-13T23:59:57Z,27,41,23,17,41,27,21,15,0,6,0,0,0,0,0,0,0,41,0,27,0,41,0,27,0,0,0,0,0,0,0,0,13,27,0,10,19,6,17,23,0,13,16,0,17,23,0,17,14,0,17,23,0,13,16,0,17,23,0,17,14,0,17,23,0,17,14,0,17,23,0,17,14,0,9,32,0,10,20,0,16,24,0,15,14,0,16,24,0,15,14,0,0,41,0,0,27,0,0,41,0,0,27,0,9,32,0,13,20,0,16,24,0,15,14,0,39,1,1,26,4,6
2017-08-14T23:59:54Z,29,45,27,19,45,29,26,17,0,5,0,0,0,0,0,0,0,45,0,29,0,45,0,29,0,0,0,0,0,0,0,0,13,31,0,10,21,5,17,27,0,13,18,0,17,27,0,16,16,0,17,27,0,13,18,0,17,27,0,17,16,0,17,27,0,17,16,0,17,27,0,17,16,0,9,36,0,10,22,0,16,28,0,15,16,0,16,28,0,15,16,0,0,45,0,0,29,0,0,45,0,0,29,0,9,36,0,13,22,0,16,28,0,15,16,0,43,1,1,28,4,6
2017-08-15T23:59:57Z,30,46,28,20,45,30,27,19,0,5,0,0,0,0,0,0,0,46,0,30,0,46,0,30,0,0,0,0,0,0,0,0,13,32,0,10,22,5,17,28,0,13,19,0,17,28,0,16,17,0,17,28,0,13,19,0,17,28,0,17,17,0,17,28,0,17,17,0,17,28,0,17,17,0,9,37,0,10,23,0,16,29,0,15,17,0,16,29,0,15,17,0,0,46,0,0,30,0,0,46,0,0,30,0,9,37,0,13,23,0,16,29,0,15,17,0,44,1,1,29,4,6
2017-08-16T23:59:57Z,30,48,27,19,48,30,26,17,0,5,0,0,0,0,0,0,0,48,0,30,0,48,0,30,0,0,0,0,0,0,0,0,13,34,0,10,22,5,17,30,0,13,19,0,17,30,0,16,17,0,17,30,0,13,19,0,17,30,0,17,17,0,17,30,0,17,17,0,17,30,0,17,17,0,9,39,0,10,23,0,16,31,0,15,17,0,16,31,0,15,17,0,0,48,0,0,30,0,0,48,0,0,30,0,9,39,0,13,23,0,16,31,0,15,17,0,46,1,1,29,4,6
2017-08-17T23:59:54Z,32,50,29,21,50,32,28,19,1,6,0,0,0,0,0,0,0,50,0,32,0,50,0,32,0,0,0,0,0,0,0,0,14,35,0,11,23,5,17,32,0,13,21,0,18,31,0,17,18,0,17,32,0,13,21,0,18,31,0,18,18,0,18,31,0,18,18,0,18,31,0,18,18,0,9,41,0,10,25,0,17,32,0,16,18,0,17,32,0,16,18,0,0,50,0,0,32,0,0,50,0,0,32,0,10,40,0,14,24,0,17,32,0,16,18,0,48,1,1,31,4,6
2017-08-18T23:59:55Z,30,48,27,19,48,30,26,17,0,5,0,0,0,0,0,0,0,48,0,30,0,48,0,30,0,0,0,0,0,0,0,0,13,34,0,10,22,5,17,30,0,13,19,0,17,30,0,16,17,0,17,30,0,13,19,0,17,30,0,17,17,0,17,30,0,17,17,0,17,30,0,17,17,0,9,39,0,10,23,0,16,31,0,15,17,0,16,31,0,15,17,0,0,48,0,0,30,0,0,48,0,0,30,0,9,39,0,13,23,0,16,31,0,15,17,0,46,1,1,29,4,6
2017-08-19T23:59:56Z,30,48,27,19,48,30,26,17,0,6,0,0,0,0,0,0,0,48,0,30,0,48,0,30,0,0,0,0,0,0,0,0,13,34,0,10,22,6,17,30,0,13,19,0,17,30,0,17,17,0,17,30,0,13,19,0,17,30,0,17,17,0,17,30,0,17,17,0,17,30,0,17,17,0,9,39,0,10,23,0,16,31,0,15,17,0,16,31,0,15,17,0,0,48,0,0,30,0,0,48,0,0,30,0,9,39,0,14,23,0,16,31,0,15,17,0,46,1,1,29,4,6
2017-08-20T23:59:56Z,30,48,27,19,48,30,26,17,0,5,0,0,0,0,0,0,0,48,0,30,0,48,0,30,0,0,0,0,0,0,0,0,13,34,0,10,22,5,17,30,0,13,19,0,17,30,0,16,17,0,17,30,0,13,19,0,17,30,0,17,17,0,17,30,0,17,17,0,17,30,0,17,17,0,9,39,0,10,23,0,16,31,0,15,17,0,16,31,0,15,17,0,0,48,0,0,30,0,0,48,0,0,30,0,9,39,0,13,23,0,16,31,0,15,17,0,46,1,1,29,4,6
2017-08-21T23:59:57Z,29,47,26,18,47,29,26,18,0,6,0,0,0,0,0,0,0,47,0,29,0,47,0,29,0,0,0,0,0,0,0,0,12,34,0,9,22,6,16,30,0,12,19,0,16,30,0,16,17,0,16,30,0,12,19,0,16,30,0,16,17,0,16,30,0,16,17,0,16,30,0,16,17,0,8,39,0,9,23,0,15,31,0,14,17,0,15,31,0,14,17,0,0,47,0,0,29,0,0,47,0,0,29,0,8,39,0,12,23,0,15,31,0,14,17,0,46,0,1,29,3,6
2017-08-22T23:59:55Z,29,47,26,18,47,29,26,17,0,5,0,0,0,0,0,0,0,47,0,29,0,47,0,29,0,0,0,0,0,0,0,0,12,34,0,9,22,5,16,30,0,12,19,0,16,30,0,15,17,0,16,30,0,12,19,0,16,30,0,16,17,0,16,30,0,16,17,0,16,30,0,16,17,0,8,39,0,9,23,0,15,31,0,14,17,0,15,31,0,14,17,0,0,47,0,0,29,0,0,47,0,0,29,0,8,39,0,12,23,0,15,31,0,15,17,0,46,0,1,29,3,6
2017-08-23T23:59:55Z,29,47,26,18,47,29,26,18,0,5,0,0,0,0,0,0,0,47,0,29,0,47,0,29,0,0,0,0,0,0,0,0,12,34,0,9,22,5,16,30,0,12,19,0,16,30,0,15,17,0,16,30,0,12,19,0,16,30,0,16,17,0,16,30,0,16,17,0,16,30,0,16,17,0,8,39,0,9,23,0,15,31,0,14,17,0,15,31,0,14,17,0,0,47,0,0,29,0,0,47,0,0,29,0,8,39,0,12,23,0,15,31,0,14,17,0,46,0,1,29,3,6
2017-08-24T23:59:57Z,29,47,26,18,47,29,26,17,1,5,0,0,0,0,0,0,0,47,0,29,0,47,0,29,0,0,0,0,0,0,0,0,12,34,0,9,22,6,16,30,0,12,19,1,16,30,0,15,17,1,16,30,0,12,19,1,16,30,0,15,17,1,16,30,0,15,17,1,16,30,0,15,17,1,8,39,0,9,23,1,15,31,0,14,17,1,15,31,0,14,17,1,0,47,0,0,29,1,0,47,0,0,29,1,8,39,0,12,23,0,15,31,0,15,17,0,46,0,1,29,3,6